Home   Weather   Weno   Past weeks

Flag for Micronesia Past Weather in Weno, Truk, Micronesia — Yesterday and Last 2 Weeks

80 °F

Sprinkles. Cloudy.

Feels Like: 85 °F
Forecast: 79 / 86 °F
Wind: 7 mph from North

Location: Truk Intl / Moen Island

Current Time: Oct 28, 2016 at 2:42:07 PM

Latest Report: Oct 28, 2016 at 1:52 PM

Visibility: 10 mi

Pressure: 29.68 "Hg

Humidity: 96%

Dew Point: 78 °F

Location of WenoLocation

Past Weather in Weno — Graph


Weno Temperature Yesterday

Maximum temperature yesterday: 88 °F (at 9:50 AM)
Minimum temperature yesterday: 80 °F (at 10:50 PM)
Average temperature yesterday: 84 °F

High & Low Weather Summary for the Past Weeks

High90 °F (Oct 17, 12:52 PM)100% (Oct 15, 4:47 AM)29.86 "Hg (Oct 15, 4:47 AM)
Low77 °F (Oct 15, 4:47 AM)68% (Oct 17, 1:54 PM)29.69 "Hg (Oct 23, 1:53 PM)
Average83 °F87%29.79 "Hg
* Reported Oct 13 12:53 PM — Oct 28 12:55 PM, Weno, Weather by CustomWeather, © 2016

Note: Actual official high and low records may vary slightly from our data, if they occured in-between our weather recording intervals... More about our weather records


Weno Weather History for the Previous 24 Hours

Scroll right to see more
Time TempWeatherWind HumidityBarometerVisibility
12:55 PM
Fri, Oct 28
83 °FSprinkles. Mostly cloudy.6 mph87%29.70 "Hg15 mi
11:52 AM86 °FMostly cloudy.5 mph78%29.74 "Hg15 mi
10:50 AM88 °FMostly cloudy.3 mph77%29.76 "Hg15 mi
9:50 AM87 °FMostly cloudy.6 mph76%29.78 "Hg15 mi
8:50 AM86 °FMostly cloudy.6 mph79%29.79 "Hg15 mi
7:50 AM84 °FPartly sunny.6 mph84%29.78 "Hg15 mi
6:50 AM80 °FPartly sunny.3 mph96%29.76 "Hg15 mi
4:50 AM79 °FPassing clouds.3 mph95%29.71 "Hg15 mi
3:50 AM79 °FMostly cloudy.3 mph95%29.70 "Hg15 mi
2:50 AM80 °FMostly cloudy.3 mph94%29.70 "Hg15 mi
1:55 AM80 °FOvercast.3 mph94%29.70 "Hg15 mi
12:54 AM80 °FOvercast.3 mph94%29.72 "Hg15 mi
11:50 PM
Thu, Oct 27
81 °FOvercast.3 mph88%29.75 "Hg15 mi
10:50 PM80 °FOvercast.7 mph90%29.77 "Hg15 mi
9:50 PM80 °FOvercast.8 mph89%29.78 "Hg15 mi
8:50 PM83 °FMostly cloudy.3 mph84%29.78 "Hg15 mi
7:50 PM83 °FMostly cloudy.3 mph84%29.78 "Hg15 mi
6:57 PM83 °FMostly cloudy.3 mph85%29.76 "Hg15 mi
5:54 PM83 °FMostly cloudy.3 mph85%29.74 "Hg15 mi
4:54 PM83 °FMostly cloudy.7 mph83%29.72 "Hg15 mi
3:52 PM84 °FMostly cloudy.3 mph84%29.72 "Hg15 mi
2:52 PM85 °FMostly cloudy.5 mph82%29.70 "Hg15 mi
Weather by CustomWeather, © 2016

See weather overviewHow to use our weather pages